CW4038 Weather Reports


Display with metric or nautical units.
time (UTC)temp
F
wind
direction
speed
MPH
gust
MPH
rain 1hr
in
rain 24hr
in
rain mn
in
humidity
%
barometer
mb
20190120225047 66 155 0.0 2.0 0.00 0.01 0.01 64 1016.3
20190120224146 66 111 0.0 1.0 0.00 0.01 0.01 65 1016.6
20190120223246 66 113 0.0 1.0 0.00 0.01 0.01 65 1017.0
20190120222345 65 57 0.0 2.0 0.00 0.01 0.01 67 1017.0
20190120221444 65 9 0.0 2.0 0.00 0.01 0.01 68 1017.3
20190120220543 65 34 0.0 2.0 0.00 0.01 0.01 71 1017.6
20190120215643 64 143 0.0 2.0 0.00 0.01 0.01 73 1017.6
20190120214742 63 336 1.0 2.0 0.00 0.01 0.01 73 1017.9
20190120213841 63 352 1.0 1.0 0.00 0.01 0.01 74 1017.9
20190120212940 63 335 1.0 4.0 0.00 0.01 0.01 74 1018.3
20190120212039 63 6 1.0 4.0 0.00 0.01 0.01 75 1018.3
20190120211138 62 16 1.0 3.0 0.00 0.01 0.01 77 1018.3
20190120210237 62 57 1.0 4.0 0.00 0.01 0.01 78 1018.6
20190120205337 62 318 2.0 4.0 0.00 0.01 0.01 77 1019.0
20190120204436 62 344 2.0 7.0 0.00 0.01 0.01 79 1019.0
20190120203535 62 328 1.0 8.0 0.00 0.01 0.01 79 1019.0
20190120202634 62 324 3.0 8.0 0.00 0.01 0.01 79 1019.3
20190120201733 62 331 2.0 7.0 0.00 0.01 0.01 78 1019.3
20190120200832 62 320 2.0 7.0 0.00 0.01 0.01 76 1019.6
20190120195931 62 290 1.0 7.0 0.00 0.01 0.01 75 1019.6
20190120195031 63 334 2.0 6.0 0.00 0.01 0.01 74 1019.7
20190120194130 63 318 1.0 5.0 0.00 0.01 0.01 69 1019.7
20190120193229 63 330 2.0 3.0 0.00 0.01 0.01 68 1019.7
20190120192328 64 343 1.0 2.0 0.00 0.01 0.01 66 1019.7
20190120191427 63 148 0.0 2.0 0.00 0.01 0.01 68 1019.6
20190120190526 62 150 0.0 5.0 0.00 0.01 0.01 72 1019.6
20190120185626 61 179 1.0 6.0 0.00 0.01 0.01 74 1019.6
20190120184725 61 150 3.0 6.0 0.00 0.01 0.01 75 1019.6
20190120183824 60 157 3.0 5.0 0.00 0.01 0.01 79 1019.3
20190120182923 59 148 1.0 2.0 0.00 0.01 0.01 87 1019.9
20190120182023 58 124 1.0 1.0 0.00 0.01 0.01 93 1020.3
20190120181121 57 328 1.0 1.0 0.00 0.01 0.01 96 1021.3
20190120180220 55 4 0.0 1.0 0.00 0.01 0.01 97 1020.9
20190120175320 54 324 1.0 1.0 0.00 0.01 0.01 98 1020.9
20190120174419 53 338 0.0 1.0 0.00 0.01 0.01 98 1021.2
20190120173518 53 127 0.0 1.0 0.00 0.01 0.01 99 1020.9
20190120172616 53 127 0.0 1.0 0.00 0.01 0.01 99 1020.9
20190120171716 52 110 0.0 1.0 0.00 0.01 0.01 99 1020.9
20190120170815 52 134 0.0 0.0 0.00 0.01 0.01 99 1020.9
20190120165914 51 134 0.0 0.0 0.00 0.01 0.01 99 1021.2
20190120165013 50 135 0.0 0.0 0.00 0.01 0.01 99 1021.2
20190120164112 50 133 0.0 0.0 0.00 0.01 0.01 99 1021.2
20190120163211 49 138 0.0 1.0 0.00 0.01 0.01 99 1021.2
20190120162310 49 139 0.0 1.0 0.00 0.01 0.01 99 1020.8
20190120161409 48 129 1.0 1.0 0.00 0.01 0.01 99 1020.8
20190120160508 47 133 0.0 1.0 0.01 0.01 0.01 99 1021.2
20190120155608 46 125 1.0 1.0 0.01 0.01 0.01 99 1020.8
20190120154707 45 30 0.0 0.0 0.01 0.01 0.01 98 1021.1
20190120153806 45 30 0.0 0.0 0.01 0.01 0.01 98 1021.1
20190120152905 45 30 0.0 0.0 0.01 0.01 0.01 98 1021.1
20190120152004 45 30 0.0 0.0 0.01 0.01 0.01 98 1021.1
20190120151104 45 30 0.0 0.0 0.01 0.01 0.01 98 1021.1
20190120150202 45 30 0.0 0.0 0.00 0.00 0.00 98 1020.8
20190120145302 45 30 0.0 0.0 0.00 0.00 0.00 98 1020.8
20190120144400 45 30 0.0 2.0 0.00 0.00 0.00 98 1020.8
20190120143459 46 30 0.0 2.0 0.00 0.00 0.00 98 1020.8
20190120142558 46 119 0.0 3.0 0.00 0.00 0.00 98 1020.9
20190120141657 46 121 1.0 3.0 0.00 0.00 0.00 98 1020.9
20190120140757 46 121 1.0 2.0 0.00 0.00 0.00 98 1020.5
20190120135856 46 99 1.0 1.0 0.00 0.00 0.00 98 1020.5
20190120134955 46 134 1.0 1.0 0.00 0.00 0.00 98 1020.9
20190120134054 46 145 1.0 2.0 0.00 0.00 0.00 98 1020.9
20190120133153 46 139 0.0 2.0 0.00 0.00 0.00 98 1020.9
20190120132252 47 138 1.0 3.0 0.00 0.00 0.00 98 1020.9
20190120131351 47 133 1.0 3.0 0.00 0.00 0.00 98 1020.9
20190120130450 47 137 2.0 3.0 0.00 0.00 0.00 98 1021.0
20190120125550 46 127 1.0 3.0 0.00 0.00 0.00 98 1021.3
20190120124649 46 138 1.0 3.0 0.00 0.00 0.00 98 1021.3
20190120123748 46 129 0.0 0.0 0.00 0.00 0.00 98 1021.3
20190120122847 46 147 0.0 0.0 0.00 0.00 0.00 98 1021.3
20190120121946 45 179 0.0 0.0 0.00 0.00 0.00 98 1021.3
20190120121045 45 204 0.0 0.0 0.00 0.00 0.00 98 1021.7
20190120120143 45 217 0.0 0.0 0.00 0.00 0.00 97 1021.7
20190120115243 45 217 0.0 0.0 0.00 0.00 0.00 97 1021.7
20190120114342 46 217 0.0 0.0 0.00 0.00 0.00 97 1022.0
20190120113441 46 217 0.0 0.0 0.00 0.00 0.00 97 1022.0
20190120112540 46 217 0.0 0.0 0.00 0.00 0.00 97 1022.0
20190120111640 46 217 0.0 0.0 0.00 0.00 0.00 97 1022.0
20190120110739 46 217 0.0 0.0 0.00 0.00 0.00 97 1022.0
20190120105838 46 217 0.0 0.0 0.00 0.00 0.00 97 1022.3
20190120104936 46 218 0.0 0.0 0.00 0.00 0.00 97 1022.0
20190120104035 46 219 0.0 0.0 0.00 0.00 0.00 97 1022.3
20190120103135 46 219 0.0 0.0 0.00 0.00 0.00 97 1022.0
20190120102234 46 218 0.0 0.0 0.00 0.00 0.00 97 1022.0
20190120101333 46 218 0.0 0.0 0.00 0.00 0.00 97 1022.3
20190120100432 46 218 0.0 0.0 0.00 0.00 0.00 97 1022.4
20190120095521 46 218 0.0 0.0 0.00 0.00 0.00 97 1022.4
20190120094620 46 218 0.0 0.0 0.00 0.00 0.00 97 1022.7
20190120093719 47 218 0.0 0.0 0.00 0.00 0.00 97 1022.7
20190120092819 47 218 0.0 0.0 0.00 0.00 0.00 97 1022.7
20190120091918 47 218 0.0 0.0 0.00 0.00 0.00 96 1022.7
20190120091017 48 218 0.0 0.0 0.00 0.00 0.00 96 1022.7
20190120090116 48 218 0.0 0.0 0.00 0.00 0.00 96 1022.7
20190120085214 48 218 0.0 0.0 0.00 0.00 0.00 97 1022.7
20190120084314 48 218 0.0 0.0 0.00 0.00 0.00 97 1023.0
20190120083413 48 218 0.0 0.0 0.00 0.00 0.00 96 1023.4
20190120082512 48 218 0.0 0.0 0.00 0.00 0.00 96 1023.3
20190120081611 48 218 0.0 0.0 0.00 0.00 0.00 96 1023.3
20190120080710 49 218 0.0 0.0 0.00 0.00 0.00 96 1023.3
20190120075809 49 218 0.0 0.0 0.00 0.00 0.00 96 1023.3
20190120074908 49 218 0.0 0.0 0.00 0.00 0.00 96 1023.3
20190120074008 49 218 0.0 0.0 0.00 0.00 0.00 96 1023.3
20190120073107 49 218 0.0 0.0 0.00 0.00 0.00 96 1023.7
20190120072206 49 218 0.0 0.0 0.00 0.00 0.00 96 1023.6
20190120071305 48 218 0.0 0.0 0.00 0.00 0.00 96 1023.3
20190120070405 48 218 0.0 0.0 0.00 0.00 0.00 95 1023.3
20190120065504 48 218 0.0 0.0 0.00 0.00 0.00 95 1023.6
20190120064603 48 217 0.0 0.0 0.00 0.00 0.00 95 1023.6
20190120063702 48 218 0.0 0.0 0.00 0.00 0.00 95 1023.6
20190120062801 49 218 0.0 0.0 0.00 0.00 0.00 94 1023.6
20190120061900 49 218 0.0 0.0 0.00 0.00 0.00 94 1023.6
20190120060959 50 218 0.0 0.0 0.00 0.00 0.00 94 1023.6
20190120060058 50 218 0.0 0.0 0.00 0.00 0.00 94 1023.6
20190120055157 50 218 0.0 0.0 0.00 0.00 0.00 94 1023.6
20190120054256 50 218 0.0 0.0 0.00 0.00 0.00 94 1023.6
20190120053356 51 218 0.0 1.0 0.00 0.00 0.00 94 1023.9
20190120052455 51 218 0.0 1.0 0.00 0.00 0.00 94 1023.9
20190120051544 51 218 0.0 0.0 0.00 0.00 0.00 93 1023.9
20190120050643 51 219 0.0 0.0 0.00 0.00 0.00 93 1023.9
20190120045743 51 219 0.0 0.0 0.00 0.00 0.00 92 1023.5
20190120044842 52 218 0.0 0.0 0.00 0.00 0.00 93 1023.9
20190120043941 52 218 0.0 0.0 0.00 0.00 0.00 92 1023.9
20190120043040 52 218 0.0 0.0 0.00 0.00 0.00 91 1023.9
20190120042139 52 219 0.0 0.0 0.00 0.00 0.00 92 1023.9
20190120041238 53 219 0.0 0.0 0.00 0.00 0.00 91 1023.8
20190120040337 53 218 0.0 0.0 0.00 0.00 0.00 90 1024.2
20190120035437 53 218 0.0 0.0 0.00 0.00 0.00 90 1023.8
20190120034536 54 218 0.0 0.0 0.00 0.00 0.00 89 1023.8
20190120033635 54 219 0.0 0.0 0.00 0.00 0.00 89 1023.8
20190120032734 54 218 0.0 0.0 0.00 0.00 0.00 87 1023.8
20190120031834 54 218 0.0 0.0 0.00 0.00 0.00 86 1023.8
20190120030933 55 218 0.0 0.0 0.00 0.00 0.00 86 1023.8
20190120030031 55 218 0.0 0.0 0.00 0.00 0.00 86 1023.8
20190120025130 56 218 0.0 0.0 0.00 0.00 0.00 86 1023.8
20190120024229 56 218 0.0 0.0 0.00 0.00 0.00 84 1023.8
20190120023329 57 218 0.0 0.0 0.00 0.00 0.00 83 1024.2
20190120022428 57 219 0.0 0.0 0.00 0.00 0.00 83 1023.9
20190120021527 58 218 0.0 0.0 0.00 0.00 0.00 80 1023.9
20190120020626 58 218 0.0 0.0 0.00 0.00 0.00 80 1024.2
20190120015726 59 218 0.0 0.0 0.00 0.00 0.00 79 1024.2
20190120014824 59 219 0.0 0.0 0.00 0.00 0.00 78 1024.2
20190120013924 60 218 0.0 0.0 0.00 0.00 0.00 76 1023.9
20190120013023 61 218 0.0 0.0 0.00 0.00 0.00 75 1023.9
20190120012122 61 218 0.0 0.0 0.00 0.00 0.00 73 1023.9
20190120011221 62 219 0.0 0.0 0.00 0.00 0.00 72 1024.3
20190120010319 63 218 0.0 1.0 0.00 0.00 0.00 71 1024.3
20190120005418 64 218 0.0 1.0 0.00 0.00 0.00 69 1024.6
20190120004518 64 218 1.0 1.0 0.00 0.00 0.00 68 1024.6
20190120003607 64 218 0.0 1.0 0.00 0.00 0.00 68 1024.7
20190120002706 65 217 0.0 1.0 0.00 0.00 0.00 66 1024.7
20190120001805 66 217 0.0 1.0 0.00 0.00 0.00 64 1024.7
20190120000904 66 217 0.0 1.0 0.00 0.00 0.00 64 1024.7
20190120000003 68 217 0.0 1.0 0.00 0.00 0.00 61 1025.1
20190119235103 69 224 0.0 1.0 0.00 0.00 0.00 60 1025.1
20190119234203 69 139 0.0 1.0 0.00 0.00 0.00 60 1025.1
20190119233301 68 339 0.0 4.0 0.00 0.00 0.00 63 1025.1
20190119232400 68 212 0.0 4.0 0.00 0.00 0.00 62 1025.4
20190119231459 68 148 1.0 2.0 0.00 0.00 0.00 63 1025.4
20190119230558 67 176 1.0 2.0 0.00 0.00 0.00 63 1025.4
20190119225657 66 294 1.0 2.0 0.00 0.00 0.00 65 1025.7